Time,TemperatureF,DewpointF,PressureIn,WindDirection,WindDirectionDegrees,WindSpeedMPH,WindSpeedGustMPH,Humidity,HourlyPrecipIn,Conditions,Clouds,dailyrainin,SolarRadiationWatts/m^2,SoftwareType,DateUTC
2013-04-23 00:00:00,43.5,30.1,30.52,South,190,4.0,5.0,59,0.00,,,0.00,0,Wunderground v.1.15,2013-04-23 04:00:00,
2013-04-23 00:01:00,43.5,30.1,30.52,South,174,4.0,5.0,59,0.00,,,0.00,0,Wunderground v.1.15,2013-04-23 04:01:00,
2013-04-23 00:02:00,43.5,30.5,30.52,South,180,4.0,5.0,60,0.00,,,0.00,0,Wunderground v.1.15,2013-04-23 04:02:00,
2013-04-23 00:03:00,43.5,30.5,30.52,South,182,5.0,5.0,60,0.00,,,0.00,0,Wunderground v.1.15,2013-04-23 04:03:00,
2013-04-23 00:09:00,43.3,30.3,30.52,South,173,3.0,6.0,60,0.00,,,0.00,0,Wunderground v.1.15,2013-04-23 04:09:00,
2013-04-23 00:11:00,43.2,30.2,30.52,South,169,4.0,7.0,60,0.00,,,0.00,0,Wunderground v.1.15,2013-04-23 04:11:00,
2013-04-23 00:17:00,43.0,30.5,30.52,South,171,4.0,7.0,61,0.00,,,0.00,0,Wunderground v.1.15,2013-04-23 04:17:00,
2013-04-23 00:23:00,42.9,30.4,30.52,South,176,4.0,6.0,61,0.00,,,0.00,0,Wunderground v.1.15,2013-04-23 04:23:00,
2013-04-23 00:29:00,42.9,30.8,30.52,South,171,4.0,6.0,62,0.00,,,0.00,0,Wunderground v.1.15,2013-04-23 04:29:00,
2013-04-23 00:35:00,42.7,30.6,30.52,South,178,3.0,5.0,62,0.00,,,0.00,0,Wunderground v.1.15,2013-04-23 04:35:00,
2013-04-23 00:41:00,42.6,30.9,30.51,South,178,2.0,2.0,63,0.00,,,0.00,0,Wunderground v.1.15,2013-04-23 04:41:00,
2013-04-23 00:46:00,42.5,30.8,30.51,SW,216,1.0,2.0,63,0.00,,,0.00,0,Wunderground v.1.15,2013-04-23 04:46:00,
2013-04-23 00:51:00,42.5,30.8,30.51,SSW,192,3.0,5.0,63,0.00,,,0.00,0,Wunderground v.1.15,2013-04-23 04:51:00,
2013-04-23 00:57:00,42.4,30.7,30.51,South,178,3.0,5.0,63,0.00,,,0.00,0,Wunderground v.1.15,2013-04-23 04:57:00,
2013-04-23 01:02:00,42.3,31.0,30.50,East,94,2.0,2.0,64,0.00,,,0.00,0,Wunderground v.1.15,2013-04-23 05:02:00,
2013-04-23 01:08:00,42.2,30.9,30.50,East,87,1.0,2.0,64,0.00,,,0.00,0,Wunderground v.1.15,2013-04-23 05:08:00,
2013-04-23 01:14:00,42.0,31.1,30.50,East,100,1.0,2.0,65,0.00,,,0.00,0,Wunderground v.1.15,2013-04-23 05:14:00,
2013-04-23 01:20:00,42.0,31.1,30.50,East,84,1.0,1.0,65,0.00,,,0.00,0,Wunderground v.1.15,2013-04-23 05:20:00,
2013-04-23 01:25:00,41.9,31.0,30.50,SE,144,0.0,1.0,65,0.00,,,0.00,0,Wunderground v.1.15,2013-04-23 05:25:00,
2013-04-23 01:30:00,42.0,31.1,30.50,ESE,115,1.0,1.0,65,0.00,,,0.00,0,Wunderground v.1.15,2013-04-23 05:30:00,
2013-04-23 01:36:00,42.0,31.1,30.50,ENE,74,1.0,2.0,65,0.00,,,0.00,0,Wunderground v.1.15,2013-04-23 05:36:00,
2013-04-23 01:42:00,42.0,31.5,30.50,SSW,199,1.0,1.0,66,0.00,,,0.00,0,Wunderground v.1.15,2013-04-23 05:42:00,
2013-04-23 01:48:00,42.0,31.5,30.50,SSW,211,1.0,2.0,66,0.00,,,0.00,0,Wunderground v.1.15,2013-04-23 05:48:00,
2013-04-23 01:54:00,41.9,31.4,30.50,SSW,201,1.0,2.0,66,0.00,,,0.00,0,Wunderground v.1.15,2013-04-23 05:54:00,
2013-04-23 02:00:00,41.8,31.6,30.49,SSW,198,1.0,1.0,67,0.00,,,0.00,0,Wunderground v.1.15,2013-04-23 06:00:00,
2013-04-23 02:06:00,41.7,31.5,30.49,South,191,1.0,4.0,67,0.00,,,0.00,0,Wunderground v.1.15,2013-04-23 06:06:00,
2013-04-23 02:12:00,41.6,31.8,30.49,South,191,2.0,4.0,68,0.00,,,0.00,0,Wunderground v.1.15,2013-04-23 06:12:00,
2013-04-23 02:18:00,41.6,32.2,30.48,SSW,199,2.0,4.0,69,0.00,,,0.00,0,Wunderground v.1.15,2013-04-23 06:18:00,
2013-04-23 02:24:00,41.6,32.5,30.49,SSE,168,1.0,3.0,70,0.00,,,0.00,0,Wunderground v.1.15,2013-04-23 06:24:00,
2013-04-23 02:30:00,41.6,32.5,30.48,SSW,194,1.0,2.0,70,0.00,,,0.00,0,Wunderground v.1.15,2013-04-23 06:30:00,
2013-04-23 02:36:00,41.5,32.4,30.48,South,188,1.0,3.0,70,0.00,,,0.00,0,Wunderground v.1.15,2013-04-23 06:36:00,
2013-04-23 02:41:00,41.5,32.4,30.48,South,188,1.0,1.0,70,0.00,,,0.00,0,Wunderground v.1.15,2013-04-23 06:41:00,
2013-04-23 02:47:00,41.5,32.8,30.48,ESE,114,1.0,4.0,71,0.00,,,0.00,0,Wunderground v.1.15,2013-04-23 06:47:00,
2013-04-23 02:53:00,41.6,32.9,30.48,SE,141,1.0,1.0,71,0.00,,,0.00,0,Wunderground v.1.15,2013-04-23 06:53:00,
2013-04-23 02:58:00,41.6,33.2,30.47,South,187,1.0,4.0,72,0.00,,,0.00,0,Wunderground v.1.15,2013-04-23 06:58:00,
2013-04-23 03:04:00,41.6,32.9,30.47,SSW,202,2.0,4.0,71,0.00,,,0.00,0,Wunderground v.1.15,2013-04-23 07:04:00,
2013-04-23 03:09:00,41.6,32.9,30.47,NNW,341,1.0,4.0,71,0.00,,,0.00,0,Wunderground v.1.15,2013-04-23 07:09:00,
2013-04-23 03:15:00,41.6,32.9,30.47,NNE,33,1.0,2.0,71,0.00,,,0.00,0,Wunderground v.1.15,2013-04-23 07:15:00,
2013-04-23 03:21:00,41.6,32.9,30.47,North,360,1.0,1.0,71,0.00,,,0.00,0,Wunderground v.1.15,2013-04-23 07:21:00,
2013-04-23 03:27:00,41.6,33.2,30.47,NNE,15,1.0,2.0,72,0.00,,,0.00,0,Wunderground v.1.15,2013-04-23 07:27:00,
2013-04-23 03:32:00,41.7,33.3,30.47,NNE,26,1.0,1.0,72,0.00,,,0.00,0,Wunderground v.1.15,2013-04-23 07:32:00,
2013-04-23 03:38:00,41.7,33.3,30.47,South,180,1.0,2.0,72,0.00,,,0.00,0,Wunderground v.1.15,2013-04-23 07:38:00,
2013-04-23 03:43:00,41.6,33.2,30.47,SSW,211,1.0,2.0,72,0.00,,,0.00,0,Wunderground v.1.15,2013-04-23 07:43:00,
2013-04-23 03:49:00,41.7,33.7,30.47,SE,143,1.0,2.0,73,0.00,,,0.00,0,Wunderground v.1.15,2013-04-23 07:49:00,
2013-04-23 03:55:00,41.8,33.8,30.46,NNE,13,1.0,2.0,73,0.00,,,0.00,0,Wunderground v.1.15,2013-04-23 07:55:00,
2013-04-23 04:00:00,41.7,33.7,30.46,SSW,200,2.0,2.0,73,0.00,,,0.00,0,Wunderground v.1.15,2013-04-23 08:00:00,
2013-04-23 04:06:00,41.6,33.6,30.46,South,189,2.0,2.0,73,0.00,,,0.00,0,Wunderground v.1.15,2013-04-23 08:06:00,
2013-04-23 04:11:00,41.7,33.7,30.46,South,187,0.0,1.0,73,0.00,,,0.00,0,Wunderground v.1.15,2013-04-23 08:11:00,
2013-04-23 04:17:00,41.8,33.8,30.46,South,189,0.0,1.0,73,0.00,,,0.00,0,Wunderground v.1.15,2013-04-23 08:17:00,
2013-04-23 04:23:00,41.8,33.8,30.46,South,184,1.0,1.0,73,0.00,,,0.00,0,Wunderground v.1.15,2013-04-23 08:23:00,
2013-04-23 04:29:00,41.7,33.7,30.46,South,187,1.0,5.0,73,0.00,,,0.00,0,Wunderground v.1.15,2013-04-23 08:29:00,
2013-04-23 04:35:00,41.5,33.5,30.46,SSW,205,2.0,2.0,73,0.00,,,0.00,0,Wunderground v.1.15,2013-04-23 08:35:00,
2013-04-23 04:41:00,41.6,33.9,30.45,NNE,27,1.0,2.0,74,0.00,,,0.00,0,Wunderground v.1.15,2013-04-23 08:41:00,
2013-04-23 04:47:00,41.6,33.9,30.45,ESE,105,1.0,2.0,74,0.00,,,0.00,0,Wunderground v.1.15,2013-04-23 08:47:00,
2013-04-23 04:53:00,41.6,33.9,30.45,South,184,1.0,4.0,74,0.00,,,0.00,0,Wunderground v.1.15,2013-04-23 08:53:00,
2013-04-23 04:59:00,41.5,33.8,30.45,SSW,202,2.0,4.0,74,0.00,,,0.00,0,Wunderground v.1.15,2013-04-23 08:59:00,
2013-04-23 05:05:00,41.4,33.7,30.44,ESE,110,2.0,5.0,74,0.00,,,0.00,0,Wunderground v.1.15,2013-04-23 09:05:00,
2013-04-23 05:11:00,41.4,33.4,30.44,NE,53,2.0,4.0,73,0.00,,,0.00,0,Wunderground v.1.15,2013-04-23 09:11:00,
2013-04-23 05:17:00,41.3,33.3,30.45,ENE,69,2.0,4.0,73,0.00,,,0.00,0,Wunderground v.1.15,2013-04-23 09:17:00,
2013-04-23 05:23:00,41.3,33.3,30.44,WSW,240,2.0,3.0,73,0.00,,,0.00,0,Wunderground v.1.15,2013-04-23 09:23:00,
2013-04-23 05:29:00,41.2,33.2,30.44,South,182,2.0,4.0,73,0.00,,,0.00,0,Wunderground v.1.15,2013-04-23 09:29:00,
2013-04-23 05:35:00,41.2,33.2,30.44,SW,223,2.0,4.0,73,0.00,,,0.00,0,Wunderground v.1.15,2013-04-23 09:35:00,
2013-04-23 05:41:00,41.2,33.2,30.44,NE,56,2.0,2.0,73,0.00,,,0.00,0,Wunderground v.1.15,2013-04-23 09:41:00,
2013-04-23 05:47:00,41.1,33.1,30.44,SSE,156,2.0,4.0,73,0.00,,,0.00,0,Wunderground v.1.15,2013-04-23 09:47:00,
2013-04-23 05:52:00,41.1,33.1,30.43,NNW,338,2.0,5.0,73,0.00,,,0.00,0,Wunderground v.1.15,2013-04-23 09:52:00,
2013-04-23 05:58:00,41.0,33.3,30.43,ENE,61,2.0,5.0,74,0.00,,,0.00,0,Wunderground v.1.15,2013-04-23 09:58:00,
2013-04-23 06:04:00,41.0,33.0,30.43,SW,217,2.0,4.0,73,0.00,,,0.00,0,Wunderground v.1.15,2013-04-23 10:04:00,
2013-04-23 06:10:00,41.0,33.3,30.44,South,183,2.0,4.0,74,0.00,,,0.00,0,Wunderground v.1.15,2013-04-23 10:10:00,
2013-04-23 06:15:00,40.9,33.2,30.44,SSW,196,2.0,5.0,74,0.00,,,0.00,0,Wunderground v.1.15,2013-04-23 10:15:00,
2013-04-23 06:21:00,41.0,33.3,30.44,West,263,2.0,2.0,74,0.00,,,0.00,0,Wunderground v.1.15,2013-04-23 10:21:00,
2013-04-23 06:27:00,41.0,33.3,30.43,ENE,60,2.0,4.0,74,0.00,,,0.00,5,Wunderground v.1.15,2013-04-23 10:27:00,
2013-04-23 06:33:00,40.9,33.2,30.44,SSE,158,2.0,2.0,74,0.00,,,0.00,7,Wunderground v.1.15,2013-04-23 10:33:00,
2013-04-23 06:38:00,41.0,33.3,30.44,ENE,68,1.0,2.0,74,0.00,,,0.00,9,Wunderground v.1.15,2013-04-23 10:38:00,
2013-04-23 06:44:00,41.0,33.3,30.44,NE,55,2.0,4.0,74,0.00,,,0.00,14,Wunderground v.1.15,2013-04-23 10:44:00,
2013-04-23 06:50:00,41.1,33.4,30.43,North,11,2.0,5.0,74,0.00,,,0.00,19,Wunderground v.1.15,2013-04-23 10:50:00,
2013-04-23 06:56:00,41.1,33.4,30.43,North,5,2.0,7.0,74,0.00,,,0.00,21,Wunderground v.1.15,2013-04-23 10:56:00,
2013-04-23 07:02:00,41.1,33.4,30.43,SSW,196,2.0,5.0,74,0.00,,,0.00,26,Wunderground v.1.15,2013-04-23 11:02:00,
2013-04-23 07:07:00,41.1,33.4,30.43,WSW,244,2.0,5.0,74,0.00,,,0.00,32,Wunderground v.1.15,2013-04-23 11:07:00,
2013-04-23 07:13:00,41.1,33.4,30.43,East,80,2.0,2.0,74,0.00,,,0.00,37,Wunderground v.1.15,2013-04-23 11:13:00,
2013-04-23 07:18:00,41.1,33.4,30.43,NE,41,2.0,4.0,74,0.00,,,0.00,39,Wunderground v.1.15,2013-04-23 11:18:00,
2013-04-23 07:23:00,41.1,33.4,30.43,ESE,111,2.0,4.0,74,0.00,,,0.00,42,Wunderground v.1.15,2013-04-23 11:23:00,
2013-04-23 07:29:00,41.2,33.5,30.43,SW,225,3.0,6.0,74,0.00,,,0.00,46,Wunderground v.1.15,2013-04-23 11:29:00,
2013-04-23 07:34:00,41.3,33.6,30.43,North,355,2.0,3.0,74,0.00,,,0.00,47,Wunderground v.1.15,2013-04-23 11:34:00,
2013-04-23 07:40:00,41.3,34.0,30.43,WSW,244,2.0,5.0,75,0.00,,,0.00,53,Wunderground v.1.15,2013-04-23 11:40:00,
2013-04-23 07:45:00,41.3,34.0,30.43,SSW,193,3.0,5.0,75,0.00,,,0.00,60,Wunderground v.1.15,2013-04-23 11:45:00,
2013-04-23 07:51:00,41.4,34.1,30.43,South,184,4.0,7.0,75,0.00,,,0.00,65,Wunderground v.1.15,2013-04-23 11:51:00,
2013-04-23 07:57:00,41.4,34.1,30.42,SW,215,3.0,11.0,75,0.00,,,0.00,74,Wunderground v.1.15,2013-04-23 11:57:00,
2013-04-23 08:03:00,41.5,34.2,30.42,SSW,206,3.0,7.0,75,0.00,,,0.00,81,Wunderground v.1.15,2013-04-23 12:03:00,
2013-04-23 08:09:00,41.6,34.3,30.42,ENE,59,3.0,7.0,75,0.00,,,0.00,86,Wunderground v.1.15,2013-04-23 12:09:00,
2013-04-23 08:15:00,41.7,34.4,30.42,NE,51,3.0,4.0,75,0.00,,,0.00,90,Wunderground v.1.15,2013-04-23 12:15:00,
2013-04-23 08:21:00,41.9,34.9,30.42,SW,215,3.0,4.0,76,0.00,,,0.00,97,Wunderground v.1.15,2013-04-23 12:21:00,
2013-04-23 08:27:00,41.8,34.5,30.42,SSW,205,4.0,9.0,75,0.00,,,0.00,105,Wunderground v.1.15,2013-04-23 12:27:00,
2013-04-23 08:33:00,42.0,34.6,30.42,SSE,160,4.0,4.0,75,0.00,,,0.00,120,Wunderground v.1.15,2013-04-23 12:33:00,
2013-04-23 08:39:00,42.2,34.8,30.42,NE,46,3.0,4.0,75,0.00,,,0.00,134,Wunderground v.1.15,2013-04-23 12:39:00,
2013-04-23 08:45:00,42.4,35.0,30.41,SSW,209,3.0,8.0,75,0.00,,,0.00,146,Wunderground v.1.15,2013-04-23 12:45:00,
2013-04-23 08:51:00,42.5,35.1,30.41,ENE,73,3.0,6.0,75,0.00,,,0.00,158,Wunderground v.1.15,2013-04-23 12:51:00,
2013-04-23 08:56:00,42.7,35.0,30.41,SSW,209,3.0,7.0,74,0.00,,,0.00,174,Wunderground v.1.15,2013-04-23 12:56:00,
2013-04-23 09:01:00,42.6,34.9,30.41,SSW,203,4.0,5.0,74,0.00,,,0.00,183,Wunderground v.1.15,2013-04-23 13:01:00,
2013-04-23 09:06:00,42.8,35.1,30.41,NNW,346,4.0,6.0,74,0.00,,,0.00,188,Wunderground v.1.15,2013-04-23 13:06:00,
2013-04-23 09:12:00,43.0,34.9,30.41,SE,142,3.0,5.0,73,0.00,,,0.00,190,Wunderground v.1.15,2013-04-23 13:12:00,
2013-04-23 09:18:00,43.3,35.6,30.41,SSW,202,3.0,6.0,74,0.00,,,0.00,200,Wunderground v.1.15,2013-04-23 13:18:00,
2013-04-23 09:23:00,43.4,35.3,30.41,SW,215,3.0,5.0,73,0.00,,,0.00,206,Wunderground v.1.15,2013-04-23 13:23:00,
2013-04-23 09:29:00,43.7,35.3,30.41,WSW,247,3.0,6.0,72,0.00,,,0.00,221,Wunderground v.1.15,2013-04-23 13:29:00,
2013-04-23 09:34:00,43.9,35.5,30.40,NNE,15,3.0,6.0,72,0.00,,,0.00,244,Wunderground v.1.15,2013-04-23 13:34:00,
2013-04-23 09:40:00,44.2,35.7,30.40,NE,50,2.0,2.0,72,0.00,,,0.00,257,Wunderground v.1.15,2013-04-23 13:40:00,
2013-04-23 09:46:00,44.7,36.2,30.40,SSW,197,2.0,6.0,72,0.00,,,0.00,265,Wunderground v.1.15,2013-04-23 13:46:00,
2013-04-23 09:52:00,44.8,36.0,30.40,South,178,2.0,2.0,71,0.00,,,0.00,283,Wunderground v.1.15,2013-04-23 13:52:00,
2013-04-23 09:58:00,45.0,35.8,30.40,SW,216,3.0,5.0,70,0.00,,,0.00,309,Wunderground v.1.15,2013-04-23 13:58:00,
2013-04-23 10:04:00,45.0,35.4,30.40,South,186,3.0,6.0,69,0.00,,,0.00,315,Wunderground v.1.15,2013-04-23 14:04:00,
2013-04-23 10:10:00,45.2,36.0,30.39,SW,218,3.0,5.0,70,0.00,,,0.00,373,Wunderground v.1.15,2013-04-23 14:10:00,
2013-04-23 10:16:00,45.7,36.1,30.39,ENE,63,3.0,5.0,69,0.00,,,0.00,411,Wunderground v.1.15,2013-04-23 14:16:00,
2013-04-23 10:22:00,46.1,36.1,30.39,SSW,209,2.0,8.0,68,0.00,,,0.00,443,Wunderground v.1.15,2013-04-23 14:22:00,
2013-04-23 10:28:00,46.4,36.8,30.38,South,190,3.0,8.0,69,0.00,,,0.00,457,Wunderground v.1.15,2013-04-23 14:28:00,
2013-04-23 10:34:00,47.0,36.6,30.38,South,182,3.0,7.0,67,0.00,,,0.00,506,Wunderground v.1.15,2013-04-23 14:34:00,
2013-04-23 10:39:00,46.9,35.7,30.38,South,177,5.0,10.0,65,0.00,,,0.00,559,Wunderground v.1.15,2013-04-23 14:39:00,
2013-04-23 10:45:00,47.0,36.2,30.37,South,178,7.0,10.0,66,0.00,,,0.00,570,Wunderground v.1.15,2013-04-23 14:45:00,
2013-04-23 10:51:00,47.5,36.3,30.37,South,188,6.0,6.0,65,0.00,,,0.00,522,Wunderground v.1.15,2013-04-23 14:51:00,
2013-04-23 10:57:00,47.4,35.4,30.37,South,182,6.0,11.0,63,0.00,,,0.00,520,Wunderground v.1.15,2013-04-23 14:57:00,
2013-04-23 11:02:00,47.8,36.6,30.37,SW,221,5.0,5.0,65,0.00,,,0.00,420,Wunderground v.1.15,2013-04-23 15:02:00,
2013-04-23 11:08:00,48.0,35.2,30.37,NNE,24,4.0,6.0,61,0.00,,,0.00,432,Wunderground v.1.15,2013-04-23 15:08:00,
2013-04-23 11:13:00,48.4,36.0,30.37,North,360,3.0,5.0,62,0.00,,,0.00,552,Wunderground v.1.15,2013-04-23 15:13:00,
2013-04-23 11:19:00,49.0,35.7,30.37,NNW,336,2.0,5.0,60,0.00,,,0.00,388,Wunderground v.1.15,2013-04-23 15:19:00,
2013-04-23 11:25:00,49.2,35.5,30.37,NE,34,2.0,4.0,59,0.00,,,0.00,394,Wunderground v.1.15,2013-04-23 15:25:00,
2013-04-23 11:31:00,49.4,35.2,30.36,South,169,3.0,4.0,58,0.00,,,0.00,473,Wunderground v.1.15,2013-04-23 15:31:00,
2013-04-23 11:37:00,49.9,35.3,30.36,South,174,3.0,6.0,57,0.00,,,0.00,448,Wunderground v.1.15,2013-04-23 15:37:00,
2013-04-23 11:42:00,49.8,35.2,30.36,South,177,4.0,6.0,57,0.00,,,0.00,489,Wunderground v.1.15,2013-04-23 15:42:00,
2013-04-23 11:48:00,49.8,35.2,30.35,SW,219,4.0,6.0,57,0.00,,,0.00,696,Wunderground v.1.15,2013-04-23 15:48:00,
2013-04-23 11:53:00,50.5,35.4,30.35,South,180,4.0,10.0,56,0.00,,,0.00,840,Wunderground v.1.15,2013-04-23 15:53:00,
2013-04-23 11:59:00,50.7,34.6,30.35,SW,234,5.0,10.0,54,0.00,,,0.00,1030,Wunderground v.1.15,2013-04-23 15:59:00,
2013-04-23 12:05:00,50.8,36.1,30.34,WNW,294,4.0,8.0,57,0.00,,,0.00,997,Wunderground v.1.15,2013-04-23 16:05:00,
2013-04-23 12:11:00,51.4,35.3,30.34,South,190,4.0,8.0,54,0.00,,,0.00,946,Wunderground v.1.15,2013-04-23 16:11:00,
2013-04-23 12:17:00,51.8,35.7,30.33,SE,124,4.0,8.0,54,0.00,,,0.00,921,Wunderground v.1.15,2013-04-23 16:17:00,
2013-04-23 12:22:00,52.0,36.8,30.33,South,176,4.0,6.0,56,0.00,,,0.00,911,Wunderground v.1.15,2013-04-23 16:22:00,
2013-04-23 12:28:00,52.2,36.5,30.33,South,177,5.0,6.0,55,0.00,,,0.00,912,Wunderground v.1.15,2013-04-23 16:28:00,
2013-04-23 12:33:00,52.6,35.5,30.33,SSW,200,5.0,7.0,52,0.00,,,0.00,925,Wunderground v.1.15,2013-04-23 16:33:00,
2013-04-23 12:39:00,53.0,36.3,30.32,NE,51,3.0,7.0,53,0.00,,,0.00,918,Wunderground v.1.15,2013-04-23 16:39:00,
2013-04-23 12:45:00,53.9,35.7,30.31,WSW,237,4.0,6.0,50,0.00,,,0.00,919,Wunderground v.1.15,2013-04-23 16:45:00,
2013-04-23 12:51:00,54.1,36.4,30.31,South,173,3.0,3.0,51,0.00,,,0.00,921,Wunderground v.1.15,2013-04-23 16:51:00,
2013-04-23 12:56:00,54.1,35.9,30.31,SSW,208,4.0,11.0,50,0.00,,,0.00,911,Wunderground v.1.15,2013-04-23 16:56:00,
2013-04-23 13:02:00,54.9,36.6,30.31,SW,215,5.0,6.0,50,0.00,,,0.00,918,Wunderground v.1.15,2013-04-23 17:02:00,
2013-04-23 13:08:00,54.9,35.0,30.30,SW,219,4.0,6.0,47,0.00,,,0.00,919,Wunderground v.1.15,2013-04-23 17:08:00,
2013-04-23 13:14:00,55.7,36.3,30.30,SSW,192,3.0,4.0,48,0.00,,,0.00,914,Wunderground v.1.15,2013-04-23 17:14:00,
2013-04-23 13:20:00,56.3,36.8,30.30,SSE,152,3.0,7.0,48,0.00,,,0.00,916,Wunderground v.1.15,2013-04-23 17:20:00,
2013-04-23 13:26:00,56.5,37.0,30.30,WNW,294,3.0,7.0,48,0.00,,,0.00,909,Wunderground v.1.15,2013-04-23 17:26:00,
2013-04-23 13:31:00,56.8,35.7,30.30,SE,135,4.0,7.0,45,0.00,,,0.00,911,Wunderground v.1.15,2013-04-23 17:31:00,
2013-04-23 13:36:00,56.3,36.3,30.30,West,279,4.0,7.0,47,0.00,,,0.00,907,Wunderground v.1.15,2013-04-23 17:36:00,
2013-04-23 13:42:00,56.5,36.0,30.30,ESE,110,5.0,8.0,46,0.00,,,0.00,905,Wunderground v.1.15,2013-04-23 17:42:00,
2013-04-23 13:48:00,56.6,36.0,30.30,SE,132,5.0,8.0,46,0.00,,,0.00,914,Wunderground v.1.15,2013-04-23 17:48:00,
2013-04-23 13:54:00,56.6,35.5,30.29,East,99,4.0,5.0,45,0.00,,,0.00,916,Wunderground v.1.15,2013-04-23 17:54:00,
2013-04-23 14:00:00,57.1,35.9,30.29,WNW,299,4.0,4.0,45,0.00,,,0.00,951,Wunderground v.1.15,2013-04-23 18:00:00,
2013-04-23 14:06:00,57.3,36.1,30.29,North,5,3.0,5.0,45,0.00,,,0.00,946,Wunderground v.1.15,2013-04-23 18:06:00,
2013-04-23 14:11:00,57.9,37.2,30.29,NE,42,2.0,5.0,46,0.00,,,0.00,900,Wunderground v.1.15,2013-04-23 18:11:00,
2013-04-23 14:17:00,57.9,35.5,30.28,SSW,208,3.0,8.0,43,0.00,,,0.00,867,Wunderground v.1.15,2013-04-23 18:17:00,
2013-04-23 14:23:00,57.5,36.3,30.28,SE,136,5.0,5.0,45,0.00,,,0.00,900,Wunderground v.1.15,2013-04-23 18:23:00,
2013-04-23 14:29:00,58.7,38.5,30.28,NE,48,4.0,5.0,47,0.00,,,0.00,865,Wunderground v.1.15,2013-04-23 18:29:00,
2013-04-23 14:35:00,59.1,37.8,30.28,ENE,78,3.0,4.0,45,0.00,,,0.00,846,Wunderground v.1.15,2013-04-23 18:35:00,
2013-04-23 14:41:00,59.9,37.3,30.28,NW,312,3.0,5.0,43,0.00,,,0.00,858,Wunderground v.1.15,2013-04-23 18:41:00,
2013-04-23 14:47:00,60.5,36.0,30.28,SSE,151,4.0,9.0,40,0.00,,,0.00,821,Wunderground v.1.15,2013-04-23 18:47:00,
2013-04-23 14:52:00,60.0,36.2,30.28,ESE,104,4.0,5.0,41,0.00,,,0.00,816,Wunderground v.1.15,2013-04-23 18:52:00,
2013-04-23 14:58:00,60.0,36.2,30.27,SE,131,4.0,9.0,41,0.00,,,0.00,793,Wunderground v.1.15,2013-04-23 18:58:00,
2013-04-23 15:04:00,60.4,38.9,30.26,SE,135,4.0,6.0,45,0.00,,,0.00,784,Wunderground v.1.15,2013-04-23 19:04:00,
2013-04-23 15:10:00,60.3,35.9,30.26,SW,221,4.0,4.0,40,0.00,,,0.00,772,Wunderground v.1.15,2013-04-23 19:10:00,
2013-04-23 15:15:00,60.3,35.9,30.26,SW,216,4.0,5.0,40,0.00,,,0.00,761,Wunderground v.1.15,2013-04-23 19:15:00,
2013-04-23 15:21:00,61.1,38.4,30.26,West,275,2.0,5.0,43,0.00,,,0.00,745,Wunderground v.1.15,2013-04-23 19:21:00,
2013-04-23 15:27:00,61.4,36.8,30.26,NW,315,3.0,7.0,40,0.00,,,0.00,733,Wunderground v.1.15,2013-04-23 19:27:00,
2013-04-23 15:33:00,61.1,35.9,30.26,West,261,4.0,9.0,39,0.00,,,0.00,715,Wunderground v.1.15,2013-04-23 19:33:00,
2013-04-23 15:39:00,61.1,37.8,30.26,SE,132,5.0,9.0,42,0.00,,,0.00,701,Wunderground v.1.15,2013-04-23 19:39:00,
2013-04-23 15:45:00,60.9,37.0,30.25,ESE,114,4.0,7.0,41,0.00,,,0.00,689,Wunderground v.1.15,2013-04-23 19:45:00,
2013-04-23 15:51:00,60.2,36.4,30.24,East,82,5.0,5.0,41,0.00,,,0.00,673,Wunderground v.1.15,2013-04-23 19:51:00,
2013-04-23 15:57:00,60.9,37.6,30.24,SSW,209,4.0,8.0,42,0.00,,,0.00,656,Wunderground v.1.15,2013-04-23 19:57:00,
2013-04-23 16:02:00,61.2,37.3,30.23,West,277,3.0,6.0,41,0.00,,,0.00,643,Wunderground v.1.15,2013-04-23 20:02:00,
2013-04-23 16:08:00,61.0,36.5,30.23,ENE,75,3.0,6.0,40,0.00,,,0.00,628,Wunderground v.1.15,2013-04-23 20:08:00,
2013-04-23 16:14:00,61.1,37.8,30.23,North,5,2.0,3.0,42,0.00,,,0.00,608,Wunderground v.1.15,2013-04-23 20:14:00,
2013-04-23 16:20:00,61.7,37.1,30.23,West,276,3.0,3.0,40,0.00,,,0.00,592,Wunderground v.1.15,2013-04-23 20:20:00,
2013-04-23 16:26:00,61.7,37.1,30.23,NNE,26,3.0,5.0,40,0.00,,,0.00,573,Wunderground v.1.15,2013-04-23 20:26:00,
2013-04-23 16:32:00,61.6,37.0,30.22,NNE,22,3.0,4.0,40,0.00,,,0.00,555,Wunderground v.1.15,2013-04-23 20:32:00,
2013-04-23 16:37:00,62.0,38.0,30.22,WNW,287,3.0,4.0,41,0.00,,,0.00,541,Wunderground v.1.15,2013-04-23 20:37:00,
2013-04-23 16:43:00,62.3,37.7,30.21,ENE,78,3.0,6.0,40,0.00,,,0.00,524,Wunderground v.1.15,2013-04-23 20:43:00,
2013-04-23 16:48:00,62.3,38.3,30.21,North,350,4.0,11.0,41,0.00,,,0.00,508,Wunderground v.1.15,2013-04-23 20:48:00,
2013-04-23 16:54:00,62.3,38.9,30.20,ESE,117,4.0,6.0,42,0.00,,,0.00,492,Wunderground v.1.15,2013-04-23 20:54:00,
2013-04-23 16:59:00,61.5,37.6,30.20,SW,230,5.0,8.0,41,0.00,,,0.00,483,Wunderground v.1.15,2013-04-23 20:59:00,
2013-04-23 17:05:00,61.6,37.7,30.20,SSW,207,4.0,5.0,41,0.00,,,0.00,417,Wunderground v.1.15,2013-04-23 21:05:00,
2013-04-23 17:11:00,61.1,37.2,30.20,South,177,3.0,6.0,41,0.00,,,0.00,287,Wunderground v.1.15,2013-04-23 21:11:00,
2013-04-23 17:17:00,61.0,37.7,30.20,SSW,195,4.0,6.0,42,0.00,,,0.00,415,Wunderground v.1.15,2013-04-23 21:17:00,
2013-04-23 17:23:00,60.9,38.8,30.20,SSW,194,3.0,6.0,44,0.00,,,0.00,114,Wunderground v.1.15,2013-04-23 21:23:00,
2013-04-23 17:28:00,60.8,38.7,30.20,South,180,4.0,7.0,44,0.00,,,0.00,67,Wunderground v.1.15,2013-04-23 21:28:00,
2013-04-23 17:34:00,60.8,39.9,30.19,SSW,198,5.0,10.0,46,0.00,,,0.00,74,Wunderground v.1.15,2013-04-23 21:34:00,
2013-04-23 17:39:00,60.9,40.0,30.19,SSW,203,6.0,10.0,46,0.00,,,0.00,63,Wunderground v.1.15,2013-04-23 21:39:00,
2013-04-23 17:45:00,60.7,39.8,30.19,SSW,196,8.0,12.0,46,0.00,,,0.00,77,Wunderground v.1.15,2013-04-23 21:45:00,
2013-04-23 17:50:00,60.6,39.7,30.19,SE,146,8.0,8.0,46,0.00,,,0.00,56,Wunderground v.1.15,2013-04-23 21:50:00,
2013-04-23 17:56:00,60.5,39.6,30.19,SSE,168,8.0,9.0,46,0.00,,,0.00,83,Wunderground v.1.15,2013-04-23 21:56:00,
2013-04-23 18:02:00,60.5,40.2,30.18,South,173,7.0,7.0,47,0.00,,,0.00,107,Wunderground v.1.15,2013-04-23 22:02:00,
2013-04-23 18:08:00,60.5,40.2,30.18,SE,138,6.0,12.0,47,0.00,,,0.00,51,Wunderground v.1.15,2013-04-23 22:08:00,
2013-04-23 18:13:00,60.4,40.1,30.18,South,180,6.0,11.0,47,0.00,,,0.00,49,Wunderground v.1.15,2013-04-23 22:13:00,
2013-04-23 18:19:00,60.1,40.3,30.18,South,187,7.0,11.0,48,0.00,,,0.00,47,Wunderground v.1.15,2013-04-23 22:19:00,
2013-04-23 18:25:00,59.9,40.7,30.18,South,174,7.0,10.0,49,0.00,,,0.00,46,Wunderground v.1.15,2013-04-23 22:25:00,
2013-04-23 18:31:00,59.8,40.6,30.18,South,174,6.0,9.0,49,0.00,,,0.00,44,Wunderground v.1.15,2013-04-23 22:31:00,
2013-04-23 18:36:00,59.5,40.8,30.18,South,181,7.0,13.0,50,0.00,,,0.00,44,Wunderground v.1.15,2013-04-23 22:36:00,
2013-04-23 18:42:00,59.3,41.2,30.18,South,171,7.0,7.0,51,0.00,,,0.00,81,Wunderground v.1.15,2013-04-23 22:42:00,
2013-04-23 18:47:00,59.1,41.5,30.18,SSE,151,6.0,7.0,52,0.00,,,0.00,67,Wunderground v.1.15,2013-04-23 22:47:00,
2013-04-23 18:52:00,59.1,42.0,30.19,South,180,6.0,7.0,53,0.00,,,0.00,62,Wunderground v.1.15,2013-04-23 22:52:00,
2013-04-23 18:58:00,58.7,42.1,30.19,SSW,200,6.0,8.0,54,0.00,,,0.00,40,Wunderground v.1.15,2013-04-23 22:58:00,
2013-04-23 19:03:00,58.4,42.3,30.19,SSE,162,6.0,8.0,55,0.00,,,0.00,54,Wunderground v.1.15,2013-04-23 23:03:00,
2013-04-23 19:09:00,58.1,42.0,30.20,SSE,148,6.0,8.0,55,0.00,,,0.00,42,Wunderground v.1.15,2013-04-23 23:09:00,
2013-04-23 19:15:00,58.0,42.4,30.19,SSE,164,5.0,6.0,56,0.00,,,0.00,39,Wunderground v.1.15,2013-04-23 23:15:00,
2013-04-23 19:21:00,57.9,42.3,30.19,South,174,5.0,5.0,56,0.00,,,0.00,28,Wunderground v.1.15,2013-04-23 23:21:00,
2013-04-23 19:27:00,57.5,42.4,30.19,South,178,5.0,9.0,57,0.00,,,0.00,21,Wunderground v.1.15,2013-04-23 23:27:00,
2013-04-23 19:34:00,57.0,42.4,30.19,South,171,5.0,6.0,58,0.00,,,0.00,16,Wunderground v.1.15,2013-04-23 23:34:00,
2013-04-23 19:39:00,56.7,42.1,30.19,SE,146,5.0,5.0,58,0.00,,,0.00,11,Wunderground v.1.15,2013-04-23 23:39:00,
2013-04-23 19:45:00,56.5,42.3,30.19,SSE,168,5.0,6.0,59,0.00,,,0.00,9,Wunderground v.1.15,2013-04-23 23:45:00,
2013-04-23 19:51:00,56.2,42.5,30.19,SSW,212,3.0,4.0,60,0.00,,,0.00,5,Wunderground v.1.15,2013-04-23 23:51:00,
2013-04-23 19:57:00,55.9,42.2,30.20,South,170,3.0,6.0,60,0.00,,,0.00,0,Wunderground v.1.15,2013-04-23 23:57:00,
2013-04-23 20:03:00,55.5,42.3,30.20,SSE,167,4.0,7.0,61,0.00,,,0.00,0,Wunderground v.1.15,2013-04-24 00:03:00,
2013-04-23 20:09:00,55.1,42.3,30.20,SSE,163,4.0,7.0,62,0.00,,,0.00,0,Wunderground v.1.15,2013-04-24 00:09:00,
2013-04-23 20:15:00,54.8,42.4,30.21,SSE,149,4.0,6.0,63,0.00,,,0.00,0,Wunderground v.1.15,2013-04-24 00:15:00,
2013-04-23 20:21:00,54.5,42.6,30.21,SSW,196,5.0,5.0,64,0.00,,,0.00,0,Wunderground v.1.15,2013-04-24 00:21:00,
2013-04-23 20:27:00,54.3,42.8,30.20,SE,133,4.0,7.0,65,0.00,,,0.00,0,Wunderground v.1.15,2013-04-24 00:27:00,
2013-04-23 20:32:00,54.1,42.6,30.20,SSE,148,4.0,5.0,65,0.00,,,0.00,0,Wunderground v.1.15,2013-04-24 00:32:00,
2013-04-23 20:38:00,54.0,42.9,30.20,SSE,163,4.0,6.0,66,0.00,,,0.00,0,Wunderground v.1.15,2013-04-24 00:38:00,
2013-04-23 20:43:00,53.8,42.7,30.20,South,189,3.0,5.0,66,0.00,,,0.00,0,Wunderground v.1.15,2013-04-24 00:43:00,
2013-04-23 20:49:00,53.5,42.8,30.20,South,173,2.0,5.0,67,0.00,,,0.00,0,Wunderground v.1.15,2013-04-24 00:49:00,
2013-04-23 20:54:00,53.3,43.0,30.20,SSE,149,3.0,8.0,68,0.00,,,0.00,0,Wunderground v.1.15,2013-04-24 00:54:00,
2013-04-23 21:00:00,53.1,42.8,30.20,South,180,4.0,5.0,68,0.00,,,0.00,0,Wunderground v.1.15,2013-04-24 01:00:00,
2013-04-23 21:06:00,53.0,42.7,30.20,South,172,3.0,5.0,68,0.00,,,0.00,0,Wunderground v.1.15,2013-04-24 01:06:00,
2013-04-23 21:12:00,52.8,42.9,30.21,South,172,3.0,5.0,69,0.00,,,0.00,0,Wunderground v.1.15,2013-04-24 01:12:00,
2013-04-23 21:18:00,52.7,42.8,30.21,South,185,3.0,5.0,69,0.00,,,0.00,0,Wunderground v.1.15,2013-04-24 01:18:00,
2013-04-23 21:24:00,52.5,43.0,30.21,SSE,163,4.0,6.0,70,0.00,,,0.00,0,Wunderground v.1.15,2013-04-24 01:24:00,
2013-04-23 21:30:00,52.4,42.9,30.21,South,178,4.0,4.0,70,0.00,,,0.00,0,Wunderground v.1.15,2013-04-24 01:30:00,
2013-04-23 21:36:00,52.2,43.1,30.21,South,175,3.0,5.0,71,0.00,,,0.00,0,Wunderground v.1.15,2013-04-24 01:36:00,
2013-04-23 21:42:00,52.0,42.9,30.21,South,178,4.0,4.0,71,0.00,,,0.00,0,Wunderground v.1.15,2013-04-24 01:42:00,
2013-04-23 21:48:00,51.9,42.8,30.22,SSW,198,3.0,4.0,71,0.00,,,0.00,0,Wunderground v.1.15,2013-04-24 01:48:00,
2013-04-23 21:54:00,51.8,42.7,30.22,South,181,2.0,4.0,71,0.00,,,0.00,0,Wunderground v.1.15,2013-04-24 01:54:00,
2013-04-23 22:00:00,51.7,43.0,30.21,South,187,3.0,5.0,72,0.00,,,0.00,0,Wunderground v.1.15,2013-04-24 02:00:00,
2013-04-23 22:06:00,51.5,43.1,30.20,SSW,192,5.0,7.0,73,0.00,,,0.00,0,Wunderground v.1.15,2013-04-24 02:06:00,
2013-04-23 22:11:00,51.4,43.0,30.20,SSW,198,5.0,6.0,73,0.00,,,0.00,0,Wunderground v.1.15,2013-04-24 02:11:00,
2013-04-23 22:17:00,51.2,42.8,30.20,South,191,5.0,8.0,73,0.00,,,0.00,0,Wunderground v.1.15,2013-04-24 02:17:00,
2013-04-23 22:22:00,51.1,42.7,30.20,South,183,5.0,6.0,73,0.00,,,0.00,0,Wunderground v.1.15,2013-04-24 02:22:00,
2013-04-23 22:28:00,50.8,42.5,30.20,South,185,4.0,6.0,73,0.00,,,0.00,0,Wunderground v.1.15,2013-04-24 02:28:00,
2013-04-23 22:34:00,50.8,42.8,30.20,South,186,4.0,5.0,74,0.00,,,0.00,0,Wunderground v.1.15,2013-04-24 02:34:00,
2013-04-23 22:39:00,50.7,42.7,30.20,SSW,192,4.0,5.0,74,0.00,,,0.00,0,Wunderground v.1.15,2013-04-24 02:39:00,
2013-04-23 22:45:00,50.7,42.7,30.20,South,186,3.0,5.0,74,0.00,,,0.00,0,Wunderground v.1.15,2013-04-24 02:45:00,
2013-04-23 22:51:00,50.6,42.6,30.20,South,180,2.0,2.0,74,0.00,,,0.00,0,Wunderground v.1.15,2013-04-24 02:51:00,
2013-04-23 22:56:00,50.5,42.5,30.20,South,185,2.0,2.0,74,0.00,,,0.00,0,Wunderground v.1.15,2013-04-24 02:56:00,
2013-04-23 23:01:00,50.3,42.3,30.19,South,174,2.0,4.0,74,0.00,,,0.00,0,Wunderground v.1.15,2013-04-24 03:01:00,
2013-04-23 23:07:00,50.2,42.6,30.19,South,175,2.0,5.0,75,0.00,,,0.00,0,Wunderground v.1.15,2013-04-24 03:07:00,
2013-04-23 23:12:00,50.0,42.7,30.19,South,169,3.0,3.0,76,0.00,,,0.00,0,Wunderground v.1.15,2013-04-24 03:12:00,
2013-04-23 23:17:00,49.9,42.6,30.19,SSE,167,3.0,4.0,76,0.00,,,0.00,0,Wunderground v.1.15,2013-04-24 03:17:00,
2013-04-23 23:24:00,49.9,42.6,30.18,SSE,168,4.0,7.0,76,0.00,,,0.00,0,Wunderground v.1.15,2013-04-24 03:24:00,
2013-04-23 23:31:00,49.7,42.4,30.18,South,175,4.0,6.0,76,0.00,,,0.00,0,Wunderground v.1.15,2013-04-24 03:31:00,
2013-04-23 23:36:00,49.8,42.9,30.18,South,189,4.0,7.0,77,0.00,,,0.00,0,Wunderground v.1.15,2013-04-24 03:36:00,
2013-04-23 23:42:00,49.8,42.5,30.18,South,182,4.0,6.0,76,0.00,,,0.00,0,Wunderground v.1.15,2013-04-24 03:42:00,
2013-04-23 23:47:00,49.9,42.6,30.18,South,171,4.0,6.0,76,0.00,,,0.00,0,Wunderground v.1.15,2013-04-24 03:47:00,
2013-04-23 23:53:00,49.9,42.6,30.17,SSW,198,4.0,5.0,76,0.00,,,0.00,0,Wunderground v.1.15,2013-04-24 03:53:00,
2013-04-23 23:59:00,49.9,42.6,30.17,South,180,4.0,6.0,76,0.00,,,0.00,0,Wunderground v.1.15,2013-04-24 03:59:00,